#timestamp,LO_Frequency,Hit 
1498316415.3,286046995.6,N
1498316435.1,286046995.4,N
1498316455.9,286046996.4,N
1498316475.7,286046993.5,N
1498316495.5,286046993.3,N
1498316515.4,286046996.4,N
1498316535.2,286046994.0,N
1498316555.0,286046995.6,N
1498316555.9,286046995.6,N
1498316575.8,286046996.4,N
1498316595.6,286046996.3,N
1498316615.4,286046993.6,N
1498316635.2,286046993.8,N
1498316655.1,286046994.5,N
1498316656.0,286046994.5,N
1498316675.8,286046994.5,N
1498316695.6,286046991.9,N
1498316715.5,286046991.9,N
1498316735.3,286046992.9,N
1498316755.1,286046992.9,N
1498316775.9,286046992.0,N
1498316795.7,286046991.8,N
1498316815.5,286046992.3,N
1498316835.4,286046992.1,N
1498316855.2,286046992.1,N
1498316875.0,286046992.3,N
1498316875.9,286046992.3,N
1498316895.8,286046992.1,N
1498316915.6,286046994.3,N
1498316935.4,286046993.9,N
1498316955.2,286046994.7,N
1498316975.1,286046992.4,N
1498316976.0,286046992.4,N
1498316995.8,286046994.8,N
1498317015.6,286046994.2,N
1498317035.5,286046993.8,N
1498317055.3,286046995.6,N
1498317075.1,286046994.3,N
1498317095.9,286046990.1,N
1498317115.7,286046992.8,N
1498317135.5,286046993.0,N
1498317155.4,286046992.5,N
1498317175.2,286046992.7,N
1498317195.0,286046992.3,N
1498317195.9,286046992.3,N
1498317215.8,286046992.8,N
1498317235.6,286046991.8,N
1498317255.4,286046990.1,N
1498317275.2,286046990.1,N
1498317295.1,286046992.8,N
1498317296.0,286046992.8,N
1498317315.8,286046990.2,N
1498317335.6,286046992.8,N
1498317355.5,286046992.4,N
1498317375.3,286046992.4,N
1498317395.1,286046992.0,N
1498317415.9,286046992.6,N
1498317435.7,286046992.8,N
1498317455.5,286046990.7,N
1498317475.4,286046991.3,N
1498317495.2,286046990.3,N
1498317515.0,286046990.3,N
1498317515.9,286046990.3,N
1498317535.8,286046990.7,N
1498317555.6,286046990.3,N
1498317575.4,286046990.1,N
1498317595.2,286046990.5,N
1498317615.1,286046990.4,N
1498317616.0,286046990.4,N
1498317635.8,286046990.6,N
1498317655.6,286046990.4,N
1498317675.5,286046989.1,Y
1498317695.3,286046997.4,N
1498317715.1,286046999.3,N
1498317735.9,286046999.4,N
1498317755.7,286046999.6,N
1498317775.5,286046997.0,N
1498317795.4,286046997.3,N
1498317815.2,286046997.3,N
1498317835.0,286046997.9,N
1498317835.9,286046997.9,N
1498317855.8,286046996.9,N
1498317875.6,286046998.3,N
1498317895.4,286046998.4,N
1498317915.3,286046996.5,N
1498317935.1,286046999.1,N
1498317936.0,286046999.1,N
1498317955.8,286046997.2,N
1498317975.7,286046999.1,N
1498317995.5,286046997.8,N
1498318015.3,286046997.7,N
1498318035.1,286046997.6,N
1498318055.9,286046995.0,N
1498318075.7,286046997.6,N
1498318095.5,286046998.0,N
1498318115.4,286046997.8,N
1498318135.2,286046997.4,N
1498318155.0,286046997.9,N
1498318155.9,286046997.9,N
1498318175.8,286046997.4,N
1498318195.6,286046996.7,N
1498318215.4,286046999.4,N
1498318235.3,286046998.9,N
1498318255.1,286046998.1,N
1498318256.0,286046998.1,N
1498318275.8,286047000.5,N
1498318295.7,286047000.8,N
1498318315.5,286047000.7,N
1498318335.3,286046998.9,N
1498318355.1,286046999.2,N
1498318375.9,286046998.2,N
1498318395.7,286046999.2,N
1498318415.5,286046999.6,N
1498318435.4,286046998.6,N
1498318455.2,286046998.6,N
1498318475.0,286047001.2,N
1498318475.9,286047001.2,N
1498318495.8,286046998.4,N
1498318515.6,286046999.0,N
1498318535.4,286046998.7,N
1498318555.3,286047001.1,N
1498318575.1,286047001.2,N
1498318576.0,286047001.2,N
1498318595.8,286046998.7,N
1498318615.6,286046999.1,N
1498318635.5,286046998.9,N
1498318655.3,286046998.1,N
1498318675.1,286046998.6,N
1498318695.9,286046999.0,N
1498318715.7,286046998.8,N
1498318735.5,286047001.0,N
1498318755.4,286046998.1,N
1498318775.2,286046997.0,N
1498318795.0,286046998.5,N
1498318795.9,286046998.5,N
1498318815.8,286047001.1,N
1498318835.6,286046998.5,N
1498318855.4,286046999.2,N
1498318875.3,286046999.0,N
1498318895.1,286046999.1,N
1498318896.0,286046999.1,N
1498318915.8,286046999.6,N
1498318935.6,286046999.1,N
1498318955.5,286046997.3,N
1498318975.3,286046999.4,N
1498318995.1,286046999.3,N
1498319015.9,286046998.6,N
1498319035.7,286046999.1,N
1498319055.5,286046999.6,N
1498319075.4,286046999.0,N
1498319095.2,286046998.7,N
1498319115.0,286046999.2,N
1498319115.9,286046999.2,N
1498319135.8,286046998.3,N
1498319155.6,286046998.3,N
1498319175.4,286046998.6,N
1498319195.3,286046998.4,N
1498319215.1,286046998.1,N
1498319216.0,286046998.1,N
1498319235.8,286047013.8,Y
1498319255.7,286047061.6,Y
1498319275.5,286047058.9,Y
1498319295.3,286047067.9,Y
1498319315.2,286047074.7,Y
1498319335.0,286047072.6,Y
1498319335.9,286047072.6,Y
1498319355.8,286047080.2,Y
1498319375.6,286047098.8,Y
1498319395.5,286047104.3,Y
1498319415.3,286047105.6,Y
1498319435.1,286047111.6,Y
1498319455.9,286047113.4,Y
1498319475.7,286047128.4,Y
1498319495.6,286047147.9,Y
1498319515.4,286047142.1,Y
1498319535.2,286047145.4,Y
1498319555.1,286047161.0,Y
1498319556.0,286047161.0,Y
1498319575.8,286047169.5,Y
1498319595.7,286047177.7,Y
1498319615.5,286047181.2,Y
1498319635.3,286047184.9,Y
1498319655.2,286047182.1,Y
1498319675.0,286047186.2,Y
1498319675.9,286047186.2,Y
1498319695.8,286047191.1,Y
1498319715.6,286047189.8,Y
1498319735.5,286047183.0,Y
1498319755.3,286047184.7,Y
1498319775.1,286047185.1,Y
1498319795.9,286047184.9,Y
1498319815.7,286047192.1,Y
1498319835.6,286047190.8,Y
1498319855.4,286047187.4,Y
1498319875.2,286047180.2,Y
1498319895.1,286047175.8,Y
1498319896.0,286047175.8,Y
1498319915.8,286047169.9,Y
1498319935.7,286047161.8,Y
1498319955.5,286047162.3,Y
1498319975.3,286047157.7,Y
1498319995.2,286047154.0,Y
